Ramona, CA

8:57 PM PDT on April 28, 2017 (GMT -0700)
Ramona

Weather History for KRNM - August, 2013

Change the Weather History Date:

Saturday, August 31, 2013

  Actual Average Record
Temperature  
Mean Temperature 83 °F 74 °F  
Max Temperature 92 °F 90 °F 104 °F (2007)
Min Temperature 73 °F 57 °F 44 °F (2005)
Degree Days  
Heating Degree Days 0 0  
Month to date heating degree days 1 0  
Since 1 June heating degree days 3 30  
Since 1 July heating degree days 1 3  
Cooling Degree Days 18 9  
Month to date cooling degree days 258 278  
Year to date cooling degree days 665 613  
Since 1 June cooling degree days 617 586  
Growing Degree Days 32 (Base 50)    
Moisture  
Dew Point 67 °F    
Average Humidity 63    
Maximum Humidity 79    
Minimum Humidity 47    
Precipitation  
Precipitation 0.00 in 0.01 in 0.01 in (2005)
Month to date precipitation 0.01 0.15  
Year to date precipitation 4.59 11.61  
Since 1 July precipitation 0.09  
Snow  
Snow 0.00 in - - ()
Month to date snowfall 0.0  
Year to date snowfall 0.0  
Snow Depth 0.00 in    
Sea Level Pressure  
Sea Level Pressure 29.93 in    
Wind  
Wind Speed 5 mph (WNW)    
Max Wind Speed 16 mph    
Max Gust Speed 21 mph    
Visibility 10 miles    
Events      
T = Trace of Precipitation, MM = Missing Value Source: NWS Daily Summary

Daily Weather History Graph

Daily Weather History Graph

Search for Another Location

Airport or City:

Trip Planner

Search our weather history database for the weather conditions in past years. The results will help you decide how hot, cold, wet, or windy it might be!

Date:

Astronomy

Aug. 31, 2013 Rise Set
Actual Time 6:21 AM PDT 7:13 PM PDT
Civil Twilight 5:56 AM PDT 7:38 PM PDT
Nautical Twilight 5:26 AM PDT 8:08 PM PDT
Astronomical Twilight 4:55 AM PDT 8:38 PM PDT
Moon 2:03 AM PDT (8/31) 4:07 PM PDT (8/31)
Length of Visible Light 13h 42m
Length of Day
12h 51m
Waning Crescent, 20% of the Moon is Illuminated
Aug 31
Waning Crescent
Sep 5
New
Sep 12
First Quarter
Sep 19
Full
Sep 26
Last Quarter

Hourly Weather History & Observations

Time (PDT) Temp. Heat Index Dew Point Humidity Pressure Visibility Wind Dir Wind Speed Gust Speed Precip Events Conditions
12:53 AM 75.0 °F - 66.9 °F 76% 29.95 in 10.0 mi WNW 4.6 mph - N/A   Clear
1:53 AM 75.0 °F - 66.9 °F 76% 29.94 in 10.0 mi Calm Calm - N/A   Clear
2:53 AM 73.9 °F - 66.0 °F 76% 29.94 in 10.0 mi Calm Calm - N/A   Clear
3:53 AM 73.9 °F - 66.0 °F 76% 29.92 in 10.0 mi Calm Calm - N/A   Clear
4:53 AM 73.9 °F - 66.0 °F 76% 29.92 in 10.0 mi Calm Calm - N/A   Clear
5:53 AM 75.0 °F - 66.9 °F 76% 29.93 in 10.0 mi Calm Calm - N/A   Clear
6:53 AM 75.9 °F - 66.9 °F 74% 29.94 in 10.0 mi Calm Calm - N/A   Clear
7:53 AM 78.1 °F - 66.9 °F 68% 29.95 in 10.0 mi Calm Calm - N/A   Clear
8:53 AM 82.0 °F 84.9 °F 68.0 °F 62% 29.95 in 10.0 mi Calm Calm - N/A   Clear
9:53 AM 84.0 °F 86.5 °F 66.9 °F 56% 29.95 in 10.0 mi Variable 3.5 mph - N/A   Clear
10:53 AM 88.0 °F 90.7 °F 66.9 °F 49% 29.95 in 10.0 mi West 4.6 mph - N/A   Clear
11:53 AM 90.0 °F 93.6 °F 68.0 °F 48% 29.93 in 10.0 mi WNW 11.5 mph - N/A   Clear
12:53 PM 91.0 °F 95.2 °F 68.0 °F 47% 29.92 in 10.0 mi WNW 11.5 mph - N/A   Clear
1:53 PM 89.1 °F 92.1 °F 66.9 °F 48% 29.91 in 10.0 mi West 15.0 mph - N/A   Clear
2:53 PM 88.0 °F 90.7 °F 66.9 °F 49% 29.90 in 10.0 mi West 13.8 mph - N/A   Clear
3:53 PM 89.1 °F 91.3 °F 66.0 °F 46% 29.88 in 10.0 mi West 13.8 mph - N/A   Clear
4:53 PM 86.0 °F 88.2 °F 66.0 °F 51% 29.88 in 10.0 mi West 10.4 mph - N/A   Clear
5:53 PM 82.0 °F 84.5 °F 66.9 °F 60% 29.89 in 10.0 mi West 11.5 mph - N/A   Clear
6:53 PM 79.0 °F - 68.0 °F 69% 29.91 in 10.0 mi West 8.1 mph - N/A   Clear
7:53 PM 75.9 °F - 66.9 °F 74% 29.93 in 10.0 mi West 5.8 mph - N/A   Clear
8:53 PM 75.9 °F - 66.9 °F 74% 29.94 in 10.0 mi Calm Calm - N/A   Clear
9:53 PM 75.0 °F - 66.9 °F 76% 29.93 in 10.0 mi NW 6.9 mph - N/A   Clear
10:53 PM 73.0 °F - 66.9 °F 81% 29.93 in 10.0 mi West 4.6 mph - N/A   Clear
11:53 PM 73.9 °F - 66.9 °F 79% 29.92 in 10.0 mi NW 5.8 mph - N/A   Clear